Flag for China Weather past 2 weeks in Xiamen, Fujian, China

Now
81 °F

Clear.


Feels Like: 88 °F
Forecast: 78 / 91 °F
Wind: 3 mph from Southwest

Location: Xiamen Airport

Current Time: Sep 5, 2015 at 3:26:36 AM

Latest Report: Sep 5, 2015 at 2:00 AM


Visibility: 10 mi

Pressure: 29.86 "Hg

Humidity: 94%

Dew point: 79 °F

Location of XiamenLocation

Historic Weather in Xiamen — Graph

°F

Xiamen temperature yesterday

Maximum temperature yesterday: 93 °F (at 12:00 PM)
Minimum temperature yesterday: 79 °F (at 3:00 AM)
Average temperature yesterday: 84 °F

Past Weeks' High & Low Weather Summary

 TemperatureHumidityPressure
High95 °F (Aug 21, 2:00 PM)100% (Aug 23, 10:00 PM)29.98 "Hg (Aug 23, 10:00 PM)
Low73 °F (Aug 31, 3:00 AM)47% (Aug 21, 2:00 PM)29.42 "Hg (Aug 22, 4:00 PM)
Average82 °F84%29.73 "Hg
* Reported Aug 21 2:00 AM — Sep 5 2:00 AM, Xiamen, Weather by CustomWeather, © 2015

Note: Actual official high and low records may vary slightly from our data, if they occured in-between our weather recording intervals... More about our weather records

Advertising

Xiamen weather history for previous 24 hours

 ConditionsComfort  
Time TempWeatherWind HumidityBarometerVisibility
2:00 AM
Sat, Sep 5
81 °FClear.3 mph94%29.86 "Hg10 mi
1:00 AM81 °FClear.1 mph94%29.89 "Hg10 mi
12:00 AM81 °FPassing clouds.3 mph94%29.89 "HgN/A
11:00 PM
Fri, Sep 4
82 °FPassing clouds.6 mph89%29.92 "HgN/A
10:00 PM82 °FPassing clouds.3 mph84%29.92 "HgN/A
9:00 PM82 °FClear.3 mph79%29.92 "Hg10 mi
8:00 PM84 °FPassing clouds.6 mph70%29.92 "HgN/A
7:00 PM84 °FSprinkles. Passing clouds.3 mph74%29.89 "HgN/A
6:00 PM86 °FPassing clouds.6 mph66%29.86 "HgN/A
5:00 PM86 °FPassing clouds.8 mph66%29.86 "HgN/A
4:00 PM88 °FPassing clouds.10 mph62%29.86 "HgN/A
3:00 PM91 °FPassing clouds.8 mph59%29.86 "HgN/A
2:00 PM91 °FPassing clouds.10 mph63%29.86 "HgN/A
1:00 PM90 °FPassing clouds.8 mph63%29.89 "HgN/A
12:00 PM93 °FScattered clouds.8 mph49%29.92 "HgN/A
11:00 AM90 °FPassing clouds.1 mph67%29.92 "HgN/A
10:00 AM90 °FPassing clouds.1 mph71%29.95 "HgN/A
9:00 AM84 °FPassing clouds.3 mph84%29.95 "Hg6 mi
8:00 AM82 °FScattered clouds.1 mph94%29.95 "Hg5 mi
7:00 AM81 °FPassing clouds.1 mph100%29.95 "Hg5 mi
6:00 AM79 °FClear.1 mph100%29.95 "Hg5 mi
5:00 AM79 °FClear.No wind100%29.92 "Hg10 mi
4:00 AM81 °FClear.1 mph94%29.92 "Hg10 mi
3:00 AM79 °FPassing clouds.3 mph100%29.92 "HgN/A
Weather by CustomWeather, © 2015

See weather overviewHow to use our weather pages